Location: Six Mile Lake
(44.9000°N, 79.7170°W)
Time: 03:14:31
(UTC-04:00)

LO-87 - Pass Details

Date: 05 July 2022
Orbit: 450 x 466 km, 97.4° (Epoch: 14 August)

Event Time Altitude Azimuth Distance (km) Brightness Sun altitude
Exits shadow 00:03:37 21° 79° (E) 1,080 ? -19.9°
Maximum altitude 00:04:02 22° 68° (ENE) 1,065 ? -19.9°
Drops below altitude 10° 00:06:47 10° 16° (NNE) 1,628 ? -20.1°
Sets 00:09:09 0° 1° (N) 2,514 ? -20.2°
